Date,TemperatureHighF,TemperatureAvgF,TemperatureLowF,DewpointHighF,DewpointAvgF,DewpointLowF,HumidityHigh,HumidityAvg,HumidityLow,PressureMaxIn,PressureMinIn,WindSpeedMaxMPH,WindSpeedAvgMPH,GustSpeedMaxMPH,PrecipitationSumIn
2013-1-1,31.1,22.8,11.9,19.4,12.3,1.9,72,64,49,30.21,30.03,4,0,4,0.00
2013-1-2,26.8,18.0,6.8,19.1,10.5,-0.4,78,72,68,30.25,30.09,2,0,2,0.00
2013-1-3,29.2,22.1,13.5,22.3,14.5,5.2,76,72,68,30.21,30.10,5,0,5,0.00
2013-1-4,33.5,27.1,22.5,21.8,18.1,15.1,76,69,55,30.22,30.08,6,2,6,0.00
2013-1-5,32.8,25.3,13.9,25.5,18.0,7.4,78,74,65,30.33,30.05,4,0,4,0.00
2013-1-6,35.5,33.0,31.7,28.6,26.3,23.9,78,76,72,30.31,29.94,4,1,4,0.00
2013-1-7,37.4,31.5,27.7,28.3,22.7,20.2,74,70,60,30.45,30.18,5,1,5,0.00
2013-1-8,36.7,28.0,20.7,30.0,20.5,14.0,77,73,66,30.30,30.19,3,0,3,0.00
2013-1-9,47.9,36.0,20.7,35.2,25.1,14.2,78,65,45,30.52,30.08,6,1,6,0.00
2013-1-10,39.4,33.4,22.7,28.5,24.9,16.3,77,71,62,30.65,30.21,6,2,6,0.03
2013-1-11,56.9,43.3,34.4,49.3,36.4,27.6,80,77,71,30.22,29.79,5,1,5,0.49
2013-1-12,59.0,48.3,40.0,49.7,41.9,34.3,81,79,70,29.99,29.85,3,0,3,0.02
2013-1-13,49.5,38.6,31.1,43.6,33.5,26.5,83,82,80,30.08,29.71,5,1,5,0.74
2013-1-14,31.0,25.2,19.1,26.5,18.6,12.8,83,76,72,30.50,30.08,6,1,6,0.00
2013-1-15,31.3,23.0,14.4,23.0,16.0,8.5,80,74,67,30.49,30.16,3,0,3,0.00
2013-1-16,40.5,29.8,20.7,24.6,19.3,14.9,80,66,44,30.17,29.83,5,1,5,0.00
2013-1-17,41.6,31.3,20.5,27.7,19.6,5.9,74,62,47,30.35,29.97,6,1,6,0.00
2013-1-18,34.0,26.2,17.3,21.3,14.0,7.1,65,60,51,30.49,30.01,7,1,7,0.00
2013-1-19,49.0,39.8,32.9,33.2,27.2,21.3,68,61,50,30.01,29.60,7,2,7,0.00
2013-1-20,43.2,41.4,37.4,34.2,27.1,18.5,70,57,46,29.67,29.58,10,4,10,0.00
2013-1-22,8.6,8.2,7.7,-1.2,-1.4,-1.6,66,65,64,30.30,30.28,3,0,3,0.00
2013-1-23,19.6,12.3,5.8,7.9,2.8,-2.6,70,65,59,30.30,30.09,3,0,3,0.00
2013-1-24,26.6,15.0,7.7,10.4,4.1,-1.4,74,63,44,30.65,30.12,6,1,6,0.00
2013-1-25,23.2,17.8,13.9,14.6,9.8,2.5,77,71,60,30.54,30.03,4,1,4,0.00
2013-1-26,27.5,22.4,17.6,18.4,14.4,9.8,77,71,61,30.50,30.05,3,0,3,0.00
2013-1-27,29.2,21.1,11.2,24.0,13.4,4.2,81,72,59,30.53,30.12,8,1,8,0.00
2013-1-28,42.8,36.8,29.2,37.7,31.8,24.0,83,82,81,30.16,29.88,5,0,5,0.26
2013-1-29,54.9,45.4,35.1,46.6,39.0,30.4,83,79,73,30.04,29.47,7,1,7,0.23
2013-1-30,59.9,49.3,32.2,53.5,43.4,26.0,82,80,73,29.47,29.11,10,1,10,0.31
2013-1-31,32.0,22.9,16.7,26.0,15.6,10.6,78,73,68,29.88,29.24,8,2,10,0.00
2013-2-1,22.3,15.4,9.7,13.7,7.8,1.2,78,72,65,30.32,29.88,5,1,5,0.00
2013-2-2,24.8,17.4,11.2,18.4,10.9,4.6,81,75,71,30.24,29.94,3,0,3,0.00
2013-2-3,24.1,15.1,4.0,16.4,8.0,-2.5,80,73,68,30.02,29.84,5,1,5,0.00
2013-2-4,28.3,21.1,16.9,23.4,15.0,9.6,84,77,71,30.02,29.87,2,0,2,0.00
2013-2-5,27.7,22.9,15.8,22.1,16.4,10.2,80,76,67,29.96,29.81,5,0,5,0.00
2013-2-6,35.3,24.9,11.0,25.4,15.5,4.0,81,68,54,30.34,29.96,5,0,5,0.06
2013-2-7,40.3,30.4,24.1,28.7,22.0,15.2,77,71,62,30.31,29.84,7,2,7,0.02
2013-2-8,30.6,26.9,17.8,25.2,19.9,10.3,81,75,66,30.38,29.76,7,1,7,0.00
2013-2-9,34.9,22.6,11.3,28.2,14.4,5.1,84,71,54,30.50,30.38,4,1,4,0.02
2013-2-11,33.7,32.3,31.3,24.7,23.6,22.7,71,70,69,29.89,29.79,8,3,8,0.00
2013-2-12,32.8,30.6,27.7,23.3,21.7,18.9,73,69,66,30.08,29.89,5,1,5,0.00
2013-2-13,31.3,28.5,27.0,23.3,20.7,18.9,77,72,70,29.93,29.78,2,0,2,0.00
2013-2-14,38.9,33.4,26.3,32.3,26.8,20.0,82,77,68,29.85,29.69,7,1,7,0.00
2013-2-15,34.2,28.2,22.5,25.6,16.2,10.7,73,61,50,30.15,29.85,6,1,6,0.00
2013-2-16,26.3,21.1,15.8,17.1,11.7,8.5,75,67,52,30.12,29.99,4,0,4,0.00
2013-2-17,26.1,18.2,11.0,10.1,6.5,3.3,77,61,44,30.24,30.05,5,1,5,0.00
2013-2-18,45.2,31.9,15.5,34.1,19.4,5.2,68,60,48,30.22,29.59,12,2,12,0.00
2013-2-19,44.6,28.3,18.2,36.7,21.1,9.8,81,74,65,29.94,29.38,7,2,9,0.10
2013-2-20,22.0,19.5,15.5,13.3,9.7,5.2,73,65,58,30.25,29.93,7,2,7,0.00
2013-2-21,26.6,22.6,20.7,15.8,13.7,11.7,75,69,60,30.40,30.24,9,2,9,0.00
2013-2-22,33.1,27.0,21.6,28.4,21.8,14.9,83,80,75,30.25,29.86,12,3,12,0.00
2013-2-23,32.9,30.0,25.4,28.2,20.6,15.7,83,68,58,29.91,29.85,5,1,5,0.05
2013-2-24,37.3,28.8,22.1,24.5,20.0,14.6,76,70,57,30.18,29.88,5,1,5,0.02
2013-2-25,40.7,30.2,19.1,27.1,20.3,12.3,79,67,54,30.25,30.11,5,1,6,0.00
2013-2-26,34.2,31.1,27.7,28.2,24.3,19.3,83,76,66,30.13,29.45,12,2,12,0.10
2013-2-27,34.7,33.2,32.6,30.3,28.6,28.0,84,83,82,29.57,29.38,3,0,3,0.33
2013-2-28,36.4,33.1,30.1,30.2,27.5,23.5,83,80,73,29.96,29.52,4,1,6,0.50
2013-3-1,30.1,26.6,24.8,23.5,19.7,17.6,77,75,72,30.12,29.95,5,1,5,0.00
2013-3-2,26.1,24.5,22.7,18.2,17.1,14.9,77,73,69,30.10,30.05,5,1,5,0.00
2013-3-3,30.6,23.7,17.6,15.1,13.3,8.8,75,65,49,30.07,30.01,7,1,7,0.01
2013-3-4,35.6,24.3,14.6,19.3,13.8,7.2,75,65,48,30.17,30.05,3,0,3,0.10
2013-3-5,35.8,28.1,20.9,23.9,19.4,14.3,78,70,59,30.13,29.82,9,3,10,0.06
2013-3-6,38.9,32.3,26.5,27.5,24.0,19.5,77,71,63,30.23,29.81,4,1,6,0.14
2013-3-7,36.0,33.0,29.2,27.4,24.3,19.9,78,70,60,30.44,30.21,5,1,5,0.01
2013-3-8,44.3,32.6,22.5,28.0,21.7,15.1,74,65,52,30.54,30.42,5,0,5,0.00
2013-3-9,43.6,34.2,24.8,30.2,25.0,17.8,79,69,58,30.45,30.04,8,1,8,0.00
2013-3-10,61.2,47.6,33.5,44.1,35.1,26.6,78,63,50,30.04,29.80,5,1,7,0.00
2013-3-11,54.2,48.3,36.7,44.8,40.8,29.9,82,75,56,29.83,29.45,8,2,8,0.17
2013-3-12,36.7,33.7,30.1,30.2,27.0,23.7,80,76,69,29.94,29.68,6,1,6,0.01
2013-3-13,32.0,28.8,24.8,25.0,19.1,12.8,80,67,53,30.21,29.83,7,2,7,0.00
2013-3-14,41.9,31.1,21.1,21.9,17.2,11.8,72,57,41,30.29,30.09,5,1,5,0.00
2013-3-15,40.1,35.0,30.4,31.0,26.5,18.4,80,71,59,30.09,29.83,4,1,4,0.05
2013-3-16,33.7,30.1,28.3,28.4,24.1,21.4,82,78,71,30.04,29.72,5,1,5,0.03
2013-3-17,34.2,27.5,22.0,22.2,17.0,13.5,75,65,51,30.28,30.04,6,2,8,0.03
2013-3-18,34.4,29.9,23.0,30.0,24.1,14.6,84,79,68,30.19,29.52,12,3,12,0.02
2013-3-19,33.8,26.8,22.9,28.8,17.5,13.3,82,68,59,29.94,29.57,9,2,9,0.00
2013-3-20,29.2,24.6,17.8,16.7,13.1,7.7,70,61,51,29.96,29.87,6,2,6,0.00
2013-3-21,31.7,23.6,15.3,21.0,15.4,7.8,77,71,61,29.93,29.83,6,1,6,0.00
2013-3-22,41.4,31.4,25.6,23.0,18.8,15.0,71,60,45,30.04,29.91,5,1,5,0.00
2013-3-23,38.5,30.8,23.6,23.7,20.1,15.6,76,65,54,30.12,30.00,5,0,5,0.00
2013-3-24,37.1,31.0,26.1,24.9,20.8,17.6,76,66,50,30.05,29.58,9,2,9,0.00
2013-3-25,40.5,34.3,30.6,26.5,24.0,21.2,73,66,54,29.90,29.50,9,2,9,0.00
2013-3-26,43.9,36.3,32.6,29.1,25.8,22.4,74,66,49,30.13,29.90,6,2,6,0.00
2013-3-27,47.2,37.8,30.2,27.6,24.7,21.6,76,60,43,30.23,30.12,7,2,7,0.00
2013-3-28,53.5,40.7,30.2,29.5,24.4,20.2,70,53,38,30.30,30.22,7,1,7,0.01
2013-3-29,54.7,41.5,30.2,26.6,22.4,18.5,62,48,30,30.32,30.23,5,1,5,0.00
2013-3-30,58.0,42.9,26.6,29.0,23.1,16.0,68,47,27,30.25,29.92,5,1,5,0.00
2013-3-31,60.1,45.8,35.3,41.1,31.2,23.6,78,58,36,29.93,29.59,7,1,7,0.05
2013-4-1,42.8,33.6,27.0,29.4,15.6,10.7,67,48,33,30.08,29.66,8,2,8,0.00
2013-4-2,43.9,31.4,22.7,16.5,12.9,8.8,68,47,30,30.24,30.07,6,1,6,0.00
2013-4-3,44.3,33.3,24.5,17.2,13.7,11.0,62,45,30,30.43,30.23,7,1,7,0.00
2013-4-4,57.4,39.4,22.0,22.3,17.1,10.2,63,43,24,30.37,29.92,5,1,5,0.00
2013-4-5,50.4,42.6,35.6,26.6,21.5,17.3,65,44,28,30.20,29.90,7,1,7,0.00
2013-4-6,53.1,40.5,31.1,30.2,22.8,17.0,60,50,34,30.24,29.79,12,3,12,0.00
2013-4-7,56.5,52.6,43.2,42.6,35.4,26.9,63,52,39,30.04,29.60,8,2,8,0.00
2013-4-8,64.6,46.5,36.4,53.7,37.1,26.1,81,70,56,30.06,29.69,8,2,8,0.04
2013-4-9,54.7,47.8,43.2,45.4,40.7,37.4,82,76,69,30.11,29.88,6,2,8,0.01
2013-4-10,48.4,43.6,39.8,42.5,38.9,35.3,85,83,79,29.99,29.84,7,2,7,0.28
2013-4-11,39.8,38.0,36.5,35.7,34.1,32.7,87,86,84,29.97,29.60,12,4,13,0.97
2013-4-12,41.2,38.4,36.0,36.7,33.6,32.0,87,83,74,29.75,29.47,10,1,10,0.27
2013-4-13,41.0,38.1,36.0,34.6,30.2,26.1,84,73,61,29.99,29.77,6,1,6,0.01
2013-4-14,48.2,40.1,32.4,36.3,30.9,26.2,80,70,58,30.13,29.98,9,2,9,0.00
2013-4-15,66.6,51.9,37.1,51.8,42.2,30.5,80,70,57,29.98,29.88,6,1,6,0.00
2013-4-16,60.5,52.5,47.9,50.8,42.1,34.4,84,70,43,30.25,29.89,4,1,4,0.34
2013-4-18,75.8,64.2,57.8,64.5,58.1,53.7,87,81,64,29.72,29.57,14,2,14,0.42
2013-4-19,58.5,44.6,36.2,54.4,37.7,27.7,87,77,65,29.75,29.31,8,2,10,0.14
2013-4-20,41.4,35.1,30.6,29.2,21.5,16.8,79,58,45,30.47,29.74,6,2,6,0.01
2013-4-21,48.1,37.4,25.6,30.1,22.9,17.6,77,57,43,30.66,30.47,8,2,8,0.00
2013-4-22,62.1,46.8,31.9,37.4,29.8,22.7,80,54,27,30.51,30.22,9,1,9,0.00
2013-4-23,69.8,54.0,38.2,50.9,39.2,28.3,84,59,41,30.22,29.80,7,1,7,0.19
2013-4-24,54.7,40.5,34.9,50.6,35.6,27.1,88,83,68,30.15,29.72,6,1,6,0.51
2013-4-25,50.8,39.6,31.0,40.3,30.3,25.6,85,71,45,30.38,30.11,6,1,6,0.11
2013-4-26,58.7,44.8,29.7,38.0,31.8,23.5,82,62,43,30.50,30.38,6,1,6,0.00
2013-4-27,68.9,52.9,35.6,42.3,35.9,28.8,83,56,30,30.40,30.14,6,1,6,0.00
2013-4-28,53.6,51.7,49.0,50.1,43.8,33.9,88,75,54,30.14,29.84,5,1,5,0.05
2013-4-29,68.8,59.1,52.0,54.8,51.6,48.5,88,77,58,29.97,29.83,4,1,4,0.02
2013-4-30,71.8,61.2,51.1,56.4,52.1,45.8,86,73,56,30.11,29.96,10,1,10,0.00
2013-5-1,81.4,65.6,48.6,59.7,51.9,43.0,86,64,42,30.30,30.10,7,1,7,0.00
2013-5-2,79.2,66.0,53.3,56.5,49.7,43.9,76,57,39,30.29,30.18,8,2,8,0.00
2013-5-3,77.0,65.9,55.6,58.2,45.8,34.9,66,50,26,30.18,30.10,8,2,8,0.00
2013-5-4,71.1,62.8,54.7,46.8,41.8,37.3,70,48,32,30.16,30.09,9,2,9,0.00
2013-5-5,73.4,62.5,53.5,46.4,40.0,34.8,64,45,26,30.14,30.07,8,2,8,0.00
2013-5-6,75.2,62.4,49.7,52.4,43.4,35.6,64,50,41,30.09,30.01,6,1,6,0.00
2013-5-7,77.8,64.2,51.5,55.3,47.9,39.0,69,56,40,30.09,30.03,8,1,8,0.00
2013-5-8,81.7,65.4,53.6,55.1,49.2,43.8,70,57,35,30.08,29.98,5,1,5,0.00
2013-5-9,80.5,66.9,51.5,54.9,49.9,44.2,81,57,34,30.01,29.93,4,0,4,0.00
2013-5-10,70.9,59.6,44.3,60.2,51.6,38.3,86,75,56,29.97,29.78,5,1,5,0.14
2013-5-11,62.5,47.9,39.8,46.8,40.1,31.1,84,75,52,29.92,29.75,6,1,6,0.02
2013-5-12,49.3,41.7,36.0,31.8,28.3,23.6,78,60,44,30.11,29.87,6,1,6,0.00
2013-5-13,56.2,43.5,30.8,29.4,25.3,22.5,75,51,29,30.19,30.09,5,1,5,0.00
2013-5-14,79.0,59.3,42.3,53.9,41.2,28.5,64,52,39,30.13,29.75,5,1,5,0.00
2013-5-15,83.7,71.5,56.5,56.7,48.7,43.6,79,48,29,29.83,29.60,6,1,6,0.00
2013-5-16,83.9,69.1,50.8,50.9,44.4,37.8,69,43,25,30.06,29.81,4,1,4,0.00
2013-5-17,76.3,63.7,51.7,49.1,41.9,35.8,64,46,32,30.19,30.06,8,1,8,0.00
2013-5-18,82.3,67.1,55.8,54.7,45.6,36.3,60,47,32,30.19,30.09,5,1,5,0.00
2013-5-19,86.0,70.4,54.7,63.5,54.2,42.5,70,57,42,30.09,29.94,4,1,4,0.00
2013-5-20,90.4,76.1,61.0,69.2,61.3,53.8,84,62,41,29.97,29.83,5,1,5,0.00
2013-5-21,85.3,76.1,67.9,66.5,61.0,56.9,80,61,43,29.87,29.75,5,1,5,0.20
2013-5-22,80.1,67.4,61.7,64.6,60.2,56.3,85,78,50,29.79,29.68,7,1,7,0.12
2013-5-23,64.3,55.0,45.0,57.7,50.1,40.5,86,84,76,30.18,29.72,6,1,6,0.10
2013-5-24,56.0,48.1,40.9,40.5,37.3,34.4,86,68,49,30.39,30.18,5,1,5,0.00
2013-5-25,66.6,52.9,38.2,42.1,37.1,31.4,81,57,37,30.45,30.33,6,1,6,0.00
2013-5-26,59.2,45.9,39.8,39.5,35.1,31.2,78,66,44,30.40,30.33,2,0,2,0.00
2013-5-27,57.6,52.0,46.8,48.3,39.7,33.8,88,63,50,30.32,30.02,4,0,4,0.26
2013-5-28,76.1,63.2,51.7,68.6,58.3,48.2,88,84,75,30.02,29.85,4,1,4,0.09
2013-5-29,83.3,74.0,66.2,66.2,63.5,59.5,84,70,50,30.04,29.81,4,1,4,0.01
2013-5-30,87.1,73.9,61.7,70.0,64.1,56.5,86,72,52,30.12,30.01,4,1,4,0.04
2013-5-31,80.3,71.0,65.9,68.3,64.7,60.9,86,81,63,30.05,29.91,5,1,5,0.26
2013-6-1,77.6,69.6,63.2,67.2,62.6,59.3,88,79,65,29.90,29.72,5,1,5,0.20
2013-6-2,70.9,64.9,55.4,61.9,55.9,44.6,85,73,62,30.03,29.69,4,1,4,0.00
2013-6-3,67.7,57.5,46.3,44.9,41.9,38.3,75,58,41,30.13,30.02,6,1,6,0.00
2013-6-4,72.9,61.3,49.3,49.7,45.6,40.2,76,58,41,30.23,30.13,3,1,3,0.00
2013-6-5,74.5,63.2,52.9,51.2,44.2,37.2,63,50,40,30.22,30.04,3,1,3,0.00
2013-6-6,71.6,62.0,56.0,55.3,47.9,41.2,65,60,54,30.04,29.88,3,1,3,0.00
2013-6-7,61.6,57.3,52.9,52.4,49.1,45.9,80,74,65,29.93,29.89,3,1,3,0.00
2013-6-8,72.9,63.9,56.7,55.4,52.3,50.0,79,67,51,30.13,29.93,4,0,4,0.00
2013-6-9,76.0,67.0,58.7,61.3,55.3,50.8,80,67,51,30.15,29.98,5,1,5,0.00
2013-6-10,69.3,64.9,60.8,64.3,59.6,53.7,86,83,63,29.99,29.77,2,0,2,1.62
2013-6-11,79.9,71.6,63.7,65.8,62.9,59.1,86,75,59,29.95,29.79,2,0,2,0.00
2013-6-12,77.4,69.7,62.8,68.5,63.0,56.5,84,79,72,29.98,29.67,2,0,2,0.07
2013-6-13,76.0,68.0,60.8,63.0,58.4,55.4,87,73,50,29.96,29.52,5,1,5,2.20
2013-6-14,76.7,67.3,59.2,58.3,55.0,51.6,83,66,44,30.13,29.96,4,0,4,0.00
2013-6-15,79.2,66.9,55.3,62.1,56.5,48.5,83,70,52,30.13,29.97,3,0,3,0.01
2013-6-16,80.6,70.9,63.7,66.6,60.6,53.1,85,71,48,29.97,29.80,4,0,4,0.45
2013-6-17,86.4,72.1,57.2,64.4,57.6,50.9,81,62,40,29.97,29.88,3,0,3,0.00
2013-6-18,73.3,65.9,58.7,58.4,52.5,42.3,80,63,44,30.12,29.92,5,1,5,0.01
2013-6-19,76.0,64.0,52.4,54.0,48.0,39.1,67,56,43,30.22,30.11,5,0,5,0.00
2013-6-20,81.7,67.1,53.3,58.3,52.4,45.5,79,61,41,30.27,30.19,3,0,3,0.00
2013-6-21,86.8,73.5,59.9,65.3,58.2,52.2,80,60,42,30.26,30.10,4,0,4,0.00
2013-6-22,85.9,74.5,66.2,73.0,64.4,55.9,77,71,63,30.15,30.05,3,0,3,0.00
2013-6-23,89.5,78.4,68.0,70.9,66.0,61.7,82,67,50,30.13,30.03,6,1,6,0.00
2013-6-24,87.7,78.2,67.5,71.0,66.1,59.7,80,67,55,30.12,29.97,4,0,4,0.00
2013-6-25,83.2,73.9,67.5,72.8,65.9,60.6,82,76,66,30.07,29.87,4,0,4,0.68
2013-6-26,80.1,72.3,66.1,70.9,65.3,60.8,83,79,67,29.96,29.77,3,0,3,0.77
2013-6-27,79.6,70.7,65.9,65.3,59.2,50.2,82,67,57,29.85,29.70,0,0,0,1.60
2013-6-28,73.4,66.1,62.5,50.1,42.4,36.4,47,42,38,29.61,29.53,0,0,0,1.47
2013-6-29,71.1,65.6,61.7,36.5,20.0,6.0,38,16,1,29.76,29.55,0,0,0,0.16
2013-6-30,77.8,68.4,61.2,44.6,14.2,4.2,32,6,1,29.98,29.75,0,0,0,0.00
2013-7-1,66.8,62.9,59.6,18.5,6.2,3.0,18,3,1,30.11,29.97,0,0,0,0.26
2013-7-2,72.7,66.1,60.3,13.2,8.0,3.5,1,1,1,30.12,30.04,2,0,2,0.21
2013-7-3,81.4,70.8,62.3,19.5,11.6,5.1,1,1,1,30.15,30.07,3,0,3,0.00
2013-7-4,79.2,73.3,67.5,17.9,13.5,9.1,1,1,1,30.20,30.12,4,0,4,0.00
2013-7-5,83.0,74.4,69.1,20.9,14.3,10.3,1,1,1,30.17,30.11,4,0,4,0.03
2013-7-6,82.8,73.2,66.6,20.8,13.5,8.4,1,1,1,30.17,30.05,3,0,3,0.20
2013-7-7,81.0,72.1,68.0,19.4,12.6,9.5,1,1,1,30.10,30.03,3,0,3,0.38
2013-7-8,81.7,72.8,66.6,20.0,13.1,8.4,1,1,1,30.09,30.02,0,0,0,0.03
2013-7-9,86.8,76.0,70.9,23.8,15.6,11.7,1,1,1,30.04,29.92,0,0,0,0.42
2013-7-10,85.0,75.7,68.6,22.3,15.4,9.9,1,1,1,29.98,29.83,0,0,0,0.16
2013-7-11,68.4,66.5,65.2,9.8,8.4,7.2,1,1,1,30.01,29.98,0,0,0,0.00
2013-7-12,69.3,69.0,68.8,10.5,10.2,10.1,1,1,1,30.19,30.19,0,0,0,0.00
2013-7-13,83.7,73.7,64.1,21.4,13.8,6.4,1,1,1,30.31,30.19,0,0,0,0.00
2013-7-14,88.6,78.2,67.7,25.2,17.2,9.3,1,1,1,30.37,30.29,0,0,0,0.00
2013-7-15,91.3,80.6,72.4,27.2,19.1,12.8,1,1,1,30.40,30.33,0,0,0,0.24
2013-7-16,90.9,82.6,75.2,26.8,20.6,14.9,1,1,1,30.43,30.35,0,0,0,0.03
2013-7-17,91.1,82.9,74.0,27.1,20.8,14.0,1,1,1,30.41,30.27,0,0,0,0.00
2013-7-18,93.6,83.8,74.0,28.9,21.5,14.0,1,1,1,30.29,30.08,0,0,0,0.00
2013-7-19,92.2,84.5,76.9,27.9,22.1,16.2,1,1,1,30.09,29.84,0,0,0,0.00
2013-7-20,84.4,77.5,72.0,50.5,19.0,12.5,31,4,1,30.03,29.82,0,0,0,0.34
2013-7-21,84.1,73.9,65.2,49.1,15.8,7.2,30,4,1,30.10,30.01,0,0,0,0.00
2013-7-22,80.3,74.7,70.0,18.8,14.6,10.8,1,1,1,30.02,29.81,0,0,0,0.04
2013-7-23,86.8,72.8,62.6,23.8,13.1,5.4,1,1,1,29.92,29.71,0,0,0,0.04
2013-7-24,73.8,65.3,58.0,41.0,13.2,1.6,32,8,1,30.09,29.92,0,0,0,0.00
2013-7-25,77.8,65.0,53.6,51.6,16.2,-22.6,40,11,1,30.16,29.91,0,0,0,0.02
2013-7-26,80.3,68.7,58.1,53.4,18.6,1.8,40,11,1,29.93,29.73,0,0,0,0.02
2013-7-27,74.7,67.0,58.0,14.6,8.7,1.5,1,1,1,29.74,29.54,0,0,0,0.43
2013-7-28,65.7,59.3,53.3,7.7,2.8,-2.1,1,1,1,29.79,29.63,0,0,0,0.00
2013-8-7,90.2,76.6,72.5,74.4,69.1,67.2,84,78,60,29.71,29.66,2,0,2,0.00
2013-8-8,72.4,69.0,66.2,67.2,64.0,61.2,86,84,82,29.78,29.70,4,1,4,0.00
2013-8-9,81.0,81.0,81.0,58.1,58.1,58.1,46,46,46,29.78,29.78,0,0,0,0.00
2013-8-10,77.4,70.2,64.4,62.7,59.5,56.2,80,70,56,29.96,29.83,4,0,4,0.00
2013-8-11,79.9,69.7,58.1,63.1,57.6,52.4,86,67,47,29.96,29.87,3,0,3,0.00
2013-8-12,71.8,66.7,63.7,67.9,61.8,57.2,94,85,66,29.90,29.66,4,0,4,0.00
2013-8-13,66.4,61.8,56.2,63.0,53.9,46.2,93,76,56,29.87,29.63,4,1,4,0.00
2013-8-14,63.5,53.6,49.9,53.3,46.7,44.3,84,77,68,29.97,29.87,4,1,4,0.00
2013-8-25,87.3,72.5,58.3,65.8,60.0,52.2,86,66,46,30.15,30.02,5,0,5,0.00
2013-8-26,87.8,75.9,63.5,72.2,65.5,57.2,84,71,57,30.05,29.85,4,1,4,0.00
2013-8-27,81.5,75.1,70.2,76.4,71.0,66.5,94,87,80,29.87,29.70,4,0,4,0.00
2013-8-28,79.9,76.1,72.5,74.5,71.9,68.0,95,87,77,29.87,29.63,4,0,5,0.00
2013-8-29,85.5,75.4,66.8,73.7,69.0,63.7,91,81,64,29.94,29.86,4,0,4,0.00
2013-8-30,86.4,75.8,64.1,72.5,67.5,60.2,94,77,58,29.88,29.61,5,1,5,0.00
2013-8-31,79.7,74.2,70.4,71.6,68.7,65.2,91,83,69,29.71,29.59,4,0,4,0.00
2013-9-1,80.5,73.0,68.0,72.3,67.6,64.2,90,83,75,29.65,29.54,3,0,4,0.00
2013-9-2,77.6,70.2,61.7,67.6,61.7,51.3,89,75,56,29.73,29.52,5,1,5,0.06
2013-9-3,74.2,64.4,58.5,57.3,53.5,50.2,77,68,52,29.84,29.72,4,1,4,0.00
2013-9-4,80.3,67.5,54.4,62.1,56.6,48.7,88,69,51,29.89,29.83,4,1,4,0.00
2013-9-5,72.2,64.6,56.3,59.5,51.7,47.1,80,64,45,30.08,29.89,6,1,6,0.00
2013-9-6,76.0,62.9,50.0,53.6,49.1,43.1,83,62,43,30.09,29.89,3,0,3,0.00
2013-9-7,81.9,67.3,56.0,68.0,59.4,49.3,82,76,61,29.89,29.71,3,0,3,0.03
2013-9-8,75.8,69.5,61.2,64.7,59.9,50.6,85,72,54,29.92,29.73,9,1,9,0.00
2013-9-9,76.7,64.9,58.0,70.8,59.5,49.3,94,83,67,29.89,29.71,3,0,3,0.38
2013-9-10,91.8,78.7,67.7,75.7,69.7,64.6,94,76,48,29.85,29.70,4,0,4,0.00
2013-9-11,90.5,76.7,67.9,74.5,67.7,62.7,89,75,55,29.87,29.73,5,0,5,0.12
2013-9-12,77.8,69.3,58.9,65.6,60.3,48.5,92,75,48,29.77,29.66,4,1,4,0.00
2013-9-13,61.2,55.7,48.1,48.5,45.1,39.6,77,68,55,29.94,29.77,5,1,5,0.00
2013-9-14,55.8,45.4,41.9,45.3,38.6,35.7,84,77,68,30.00,29.93,2,0,2,0.00
2013-9-15,63.0,58.6,57.2,53.3,52.7,51.8,86,81,68,29.93,29.85,2,0,2,0.05
2013-9-16,62.6,57.1,50.6,52.8,49.7,41.8,89,77,60,30.19,29.92,5,1,5,0.01
2013-9-17,68.6,55.0,42.5,53.6,44.2,36.4,86,68,45,30.21,30.03,4,0,4,0.00
2013-9-18,76.3,61.3,49.7,59.0,51.1,42.7,86,70,49,30.03,29.85,3,0,3,0.00
2013-9-19,79.6,67.2,57.8,68.3,60.7,52.8,91,80,67,29.86,29.73,4,1,4,0.00
2013-9-20,79.0,70.7,66.2,72.0,67.0,63.8,95,88,71,29.73,29.53,4,1,4,0.70
2013-9-21,67.3,62.4,56.9,63.8,55.0,47.5,93,78,54,29.66,29.47,4,1,4,0.04
2013-9-22,60.5,54.2,47.0,47.9,43.5,39.8,76,67,57,29.88,29.66,5,1,5,0.00
2013-9-23,62.3,52.6,44.8,48.1,43.5,38.7,84,72,56,29.99,29.87,6,1,6,0.00
2013-9-24,67.5,55.3,44.6,53.7,46.7,39.5,87,74,57,29.95,29.80,5,0,5,0.00
2013-9-25,70.9,58.6,49.9,57.2,49.8,44.6,86,73,57,29.80,29.75,5,1,5,0.00
2013-9-26,76.3,61.5,50.4,55.3,49.7,44.5,86,67,42,29.96,29.79,5,0,5,0.00
2013-9-27,76.0,61.8,49.7,60.1,51.9,43.7,88,71,52,30.05,29.95,5,1,5,0.00
2013-9-28,78.5,63.9,53.1,61.7,54.1,47.4,92,72,47,30.01,29.82,4,0,4,0.00
2013-9-29,63.0,59.7,56.5,60.1,55.6,50.8,91,86,77,29.84,29.76,2,0,2,0.14
2013-9-30,70.9,62.0,55.8,58.6,55.6,49.7,93,80,59,29.81,29.74,5,0,5,0.00
2013-10-1,67.9,58.8,49.9,62.6,54.1,45.6,95,85,79,29.82,29.74,5,0,5,0.02
2013-10-2,78.5,65.5,56.2,59.3,54.7,50.6,94,71,40,29.89,29.75,4,0,4,0.00
2013-10-3,66.4,58.7,57.2,61.6,52.3,49.9,85,79,74,29.87,29.82,2,0,2,0.00
2013-10-4,77.8,72.6,67.3,67.5,65.1,62.1,84,77,67,29.85,29.81,3,0,3,0.00
2013-10-5,72.7,68.3,64.6,68.2,64.8,61.7,95,89,83,29.84,29.66,4,0,4,0.20
2013-10-6,68.9,64.9,56.5,67.0,62.5,54.2,96,92,84,29.66,29.42,6,1,6,0.39
2013-10-7,59.0,51.8,44.8,54.2,46.8,41.5,92,83,68,29.92,29.47,7,1,7,0.00
2013-10-8,68.0,53.4,41.2,51.5,44.1,37.3,92,73,47,30.09,29.92,4,0,4,0.01
2013-10-9,70.4,55.8,44.5,55.9,45.6,39.6,90,70,45,30.12,30.03,5,1,5,0.00
2013-10-10,72.2,57.0,46.1,54.4,45.8,40.6,90,68,41,30.04,29.94,4,0,4,0.10
2013-10-11,73.4,57.0,44.3,55.2,46.8,38.2,87,70,51,29.94,29.88,4,0,4,0.00
2013-10-12,77.8,62.0,50.4,59.9,51.6,45.3,91,70,41,29.90,29.84,5,0,5,0.00
2013-10-13,68.2,60.0,50.2,56.4,47.2,39.9,88,65,39,30.15,29.89,4,1,4,0.00
2013-10-14,64.4,53.9,47.5,46.3,42.8,39.6,81,67,49,30.22,30.07,6,1,6,0.00
2013-10-15,63.0,54.5,44.3,59.2,49.3,38.3,92,83,74,30.08,29.63,4,1,4,0.01
2013-10-16,61.7,56.8,52.4,59.4,50.2,44.6,92,79,59,29.70,29.58,5,1,5,0.00
2013-10-17,52.4,49.8,45.9,48.0,45.4,40.8,90,85,78,29.69,29.52,3,0,3,0.06
2013-10-18,61.7,50.6,40.9,49.7,43.5,37.9,92,78,55,29.69,29.61,4,0,4,0.01
2013-10-19,48.1,44.0,39.8,44.6,39.7,35.8,91,85,77,29.68,29.52,4,0,4,0.10
2013-10-20,58.1,47.7,38.0,45.9,40.6,34.9,91,77,58,29.69,29.57,4,1,4,0.02
2013-10-21,53.6,49.8,40.9,47.3,42.8,34.7,86,77,69,29.64,29.57,5,1,5,0.01
2013-10-22,48.8,41.7,33.1,35.5,31.9,27.5,81,68,52,29.69,29.61,6,1,6,0.00
2013-10-23,47.3,39.8,33.7,35.6,31.2,27.4,87,72,48,29.70,29.55,4,0,4,0.00
2013-10-24,46.4,38.6,33.3,34.0,30.5,28.3,86,73,51,29.96,29.68,3,1,3,0.00
2013-10-25,48.6,39.3,32.9,36.2,31.0,28.1,88,73,53,30.12,29.90,6,1,6,0.00
2013-10-26,49.0,42.8,37.1,39.6,32.4,28.1,85,67,57,29.90,29.56,8,2,8,0.06
2013-10-27,52.2,40.5,33.1,39.6,32.8,28.4,87,75,52,29.84,29.75,5,0,5,0.00
2013-10-28,51.3,41.4,32.0,42.1,33.9,26.3,87,75,68,30.18,29.80,5,1,5,0.00
2013-10-29,51.5,44.3,38.2,40.5,35.5,30.6,77,71,65,30.23,30.02,4,1,4,0.00
2013-10-30,63.7,48.6,36.0,49.2,40.0,30.6,90,73,53,30.02,29.74,6,1,6,0.07
2013-10-31,61.4,58.7,52.9,60.0,56.9,49.4,96,94,88,29.75,28.93,7,2,7,0.66
2013-11-1,45.4,45.2,45.0,41.9,41.6,41.4,88,87,87,29.43,29.41,1,0,1,0.00
2013-11-2,46.8,44.6,38.5,43.3,40.9,34.1,93,87,78,29.87,29.39,5,1,5,0.11
2013-11-3,45.7,38.8,33.5,38.1,33.4,30.0,89,81,68,30.23,29.87,5,1,5,0.00
2013-11-4,48.8,40.4,33.3,36.2,32.6,29.5,87,74,52,30.26,30.09,6,1,6,0.00
2013-11-5,52.9,46.9,38.9,47.6,42.0,32.9,87,83,78,30.16,29.96,3,0,3,0.00
2013-11-6,54.7,51.3,42.8,51.5,46.4,38.9,90,83,71,29.96,29.56,8,2,8,0.07
2013-11-7,45.2,40.4,35.3,38.9,31.8,27.1,88,72,53,29.92,29.75,7,1,7,0.03
2013-11-8,45.7,37.3,32.9,31.2,29.1,25.7,85,73,53,30.07,29.89,4,0,4,0.00
2013-11-9,57.1,47.3,35.6,41.9,36.3,29.4,79,66,54,29.95,29.57,8,2,8,0.00
2013-11-10,49.1,42.8,33.5,39.4,30.6,25.0,74,62,54,30.07,29.67,10,2,10,0.00
2013-11-11,43.9,36.7,29.0,38.0,30.9,22.3,87,79,73,30.10,29.80,7,2,7,0.15
2013-11-12,34.9,28.7,24.3,23.9,19.9,16.9,81,70,55,30.34,30.09,8,2,8,0.01
2013-11-13,42.1,30.2,20.2,26.2,18.7,13.2,82,64,38,30.33,29.93,8,2,8,0.00
2013-11-14,49.9,38.7,29.3,29.4,23.8,19.0,69,56,40,29.94,29.76,8,2,8,0.00
2013-11-15,50.0,42.4,35.5,32.5,28.5,23.9,67,58,48,29.85,29.77,7,1,7,0.00
2013-11-16,56.7,46.0,33.3,51.5,39.6,26.0,87,79,66,29.88,29.57,10,2,10,0.00
2013-11-17,62.3,58.3,55.6,59.0,55.3,49.1,94,90,75,29.57,28.99,14,3,14,0.49
2013-11-18,37.4,35.3,34.7,27.9,25.7,24.7,71,68,66,29.91,29.71,13,4,13,0.00
2013-11-19,43.4,35.4,27.7,27.4,24.1,20.6,76,64,50,30.19,29.90,7,1,7,0.00
2013-11-20,45.2,34.6,24.8,32.7,25.5,19.4,85,70,52,30.22,30.01,7,1,7,0.00
2013-11-21,46.4,42.9,39.2,42.3,37.4,28.9,93,81,65,30.07,29.94,5,1,6,0.29
2013-11-22,45.4,40.0,29.0,43.5,36.1,24.1,93,86,73,30.15,29.90,7,1,7,0.06
2013-11-23,30.4,25.4,18.5,24.5,17.3,9.4,86,72,51,30.31,30.04,10,2,10,0.00
2013-11-24,28.3,20.2,14.8,13.2,10.9,8.4,77,68,51,30.39,30.19,8,2,8,0.00
2013-11-25,31.1,25.5,19.1,24.2,16.7,11.2,81,69,57,30.19,29.84,8,2,8,0.00
2013-11-26,34.7,31.6,29.2,28.0,26.3,23.5,86,81,76,29.86,29.68,8,1,8,0.01
2013-11-27,29.5,24.8,19.4,23.8,15.5,10.8,83,68,55,29.95,29.64,11,2,11,0.00
2013-11-28,28.4,23.6,17.6,21.7,16.1,10.1,83,73,63,30.19,29.95,5,1,5,0.00
2013-11-29,35.3,25.9,16.9,25.2,18.3,11.1,84,73,56,30.44,30.19,3,0,3,0.00
2013-11-30,45.0,33.4,27.7,30.1,24.3,20.9,79,70,54,30.33,29.87,6,2,6,0.00
2013-12-1,46.3,34.3,26.3,36.7,28.1,20.6,84,78,67,29.87,29.73,4,0,4,0.00
2013-12-2,40.7,34.3,27.0,30.3,27.0,20.0,85,75,60,29.76,29.63,5,0,5,0.00
2013-12-3,37.8,34.2,26.6,35.1,30.1,19.7,90,85,75,29.65,29.58,5,1,5,0.06
2013-12-4,57.2,45.8,37.1,53.1,42.7,34.1,93,89,86,29.65,29.37,8,1,8,0.00
2013-12-5,57.2,43.1,31.1,53.7,35.6,22.9,89,75,65,29.92,29.35,9,2,9,0.00
2013-12-6,31.1,27.2,22.3,23.3,18.4,13.7,73,69,64,30.17,29.88,8,2,8,0.00
2013-12-7,27.2,20.4,14.9,14.3,10.9,7.0,79,67,55,30.41,30.17,7,1,7,0.00
2013-12-8,29.0,20.8,13.3,26.3,14.9,6.6,90,78,70,30.38,29.72,8,2,8,0.00
2013-12-9,29.5,26.2,19.3,26.9,20.9,12.5,91,80,71,29.88,29.60,7,2,7,0.00
2013-12-10,23.4,18.5,11.2,14.0,9.8,4.2,77,69,51,29.94,29.70,6,2,8,0.00
2013-12-11,25.6,18.0,8.3,19.3,11.3,1.1,82,75,67,30.24,29.93,7,1,7,0.00
2013-12-12,20.9,13.4,3.6,14.4,5.3,-3.1,81,70,51,30.22,29.93,8,1,8,0.00
2013-12-13,30.4,24.8,20.9,22.8,18.1,14.4,78,76,72,30.04,29.88,8,1,8,0.00
2013-12-14,24.7,20.8,19.4,18.4,16.3,14.6,86,83,75,30.01,29.54,10,3,11,0.04
2013-12-15,25.7,21.0,16.2,21.7,15.8,10.0,87,80,69,29.78,29.53,10,2,10,0.05
2013-12-16,25.6,14.4,2.2,17.5,8.0,-3.5,82,76,62,29.92,29.73,3,0,3,0.00
2013-12-17,26.6,22.1,15.1,21.8,17.6,10.4,87,83,79,29.76,29.61,9,1,9,0.00
2013-12-18,33.3,25.9,20.9,24.3,19.9,14.6,88,78,66,29.86,29.63,6,1,8,0.01
2013-12-19,40.7,29.1,20.5,33.3,23.6,14.0,85,80,72,29.74,29.58,3,0,3,0.06
2013-12-20,41.0,36.6,34.2,39.2,34.3,31.1,94,91,85,29.64,29.45,2,0,2,0.34
2013-12-21,36.7,34.1,32.9,34.9,32.3,30.9,94,93,92,29.61,29.35,8,2,8,0.77
2013-12-22,37.8,34.6,32.9,35.1,32.3,31.1,95,91,87,29.71,29.23,6,2,7,0.29
2013-12-23,33.8,29.2,20.3,31.1,23.9,13.3,91,81,69,30.08,29.71,6,2,6,0.00
2013-12-24,22.3,16.9,12.1,13.4,9.6,6.1,81,73,61,30.33,30.06,7,1,7,0.00
2013-12-25,25.0,20.0,10.4,22.0,15.5,4.9,88,82,76,30.27,29.86,8,2,8,0.00
2013-12-26,28.6,26.4,24.5,24.3,21.2,18.4,90,81,70,30.06,29.76,8,2,8,0.00
2013-12-27,40.3,33.1,25.6,32.5,27.8,20.8,86,81,71,30.07,29.84,6,1,6,0.05
2013-12-28,47.0,38.9,31.5,36.6,32.3,27.0,85,77,66,29.90,29.66,7,2,7,0.00
2013-12-29,44.1,34.7,23.6,34.3,28.4,17.3,87,78,66,29.76,29.43,8,2,8,0.00
2013-12-30,23.4,20.6,17.1,17.3,11.3,6.6,77,67,62,30.03,29.76,8,1,8,0.00
2013-12-31,21.2,17.9,15.1,14.7,11.4,9.1,81,76,65,30.10,29.78,6,1,6,0.00
2014-1-1,16.9,15.3,13.9,12.1,10.2,8.6,84,80,77,30.15,29.95,8,2,8,0.03
2014-1-2,16.9,13.0,4.0,11.8,7.7,-3.1,84,79,71,30.03,29.80,11,4,11,0.00